When you browse on this site, cookies collect data to enhance your experience and personalize the content and advertising you see.
Visit our Privacy Policy to learn more. By continuing to use the site, you agree to this use of cookies and data.
EN

Hourly Weather Koninek

Today, 12 August, Wednesday

Time Temperature Precipitation Wind Pressure Humidity
00:00 +18°C° 0 mm 4 mps 757 mmHg 70%
01:00 +18°C° 0 mm 3 mps 757 mmHg 75%
02:00 +17°C° 0 mm 3 mps 757 mmHg 77%
03:00 +16°C° 0 mm 3 mps 757 mmHg 78%
04:00 +16°C° 0 mm 3 mps 757 mmHg 80%
05:00 +17°C° 0 mm 3 mps 757 mmHg 76%
06:00 +18°C° 0 mm 3 mps 757 mmHg 73%
07:00 +19°C° 0 mm 3 mps 757 mmHg 69%
08:00 +20°C° 0 mm 4 mps 757 mmHg 64%
09:00 +22°C° 0 mm 4 mps 757 mmHg 59%
10:00 +25°C° 0 mm 4 mps 757 mmHg 53%
11:00 +26°C° 0 mm 4 mps 757 mmHg 49%
12:00 +27°C° 0 mm 4 mps 757 mmHg 45%
13:00 +28°C° 0 mm 3 mps 757 mmHg 40%
14:00 +28°C° 0 mm 3 mps 756 mmHg 39%
15:00 +28°C° 0 mm 3 mps 756 mmHg 39%
16:00 +28°C° 0 mm 3 mps 755 mmHg 38%
17:00 +26°C° 0 mm 3 mps 755 mmHg 44%
18:00 +25°C° 0 mm 2 mps 755 mmHg 50%
19:00 +23°C° 0 mm 2 mps 755 mmHg 56%
20:00 +21°C° 0 mm 2 mps 755 mmHg 58%
21:00 +20°C° 0 mm 2 mps 755 mmHg 60%
22:00 +19°C° 0 mm 3 mps 755 mmHg 62%
23:00 +18°C° 0 mm 3 mps 755 mmHg 64%

Tomorrow, 13 August, Thursday

Time Temperature Precipitation Wind Pressure Humidity
00:00 +18°C° 0 mm 3 mps 755 mmHg 65%
01:00 +17°C° 0 mm 3 mps 755 mmHg 67%
02:00 +17°C° 0 mm 2 mps 755 mmHg 69%
03:00 +17°C° 0 mm 2 mps 755 mmHg 70%
04:00 +16°C° 0 mm 2 mps 754 mmHg 71%
05:00 +17°C° 0 mm 2 mps 754 mmHg 69%
06:00 +18°C° 0 mm 3 mps 754 mmHg 67%
07:00 +19°C° 0 mm 3 mps 754 mmHg 66%
08:00 +21°C° 0 mm 3 mps 754 mmHg 60%
09:00 +24°C° 0 mm 3 mps 754 mmHg 54%
10:00 +26°C° 0 mm 3 mps 754 mmHg 49%
11:00 +27°C° 0 mm 3 mps 754 mmHg 46%
12:00 +28°C° 0 mm 3 mps 754 mmHg 43%
13:00 +29°C° 0 mm 3 mps 753 mmHg 40%
14:00 +29°C° 0 mm 3 mps 753 mmHg 39%
15:00 +29°C° 0 mm 2 mps 753 mmHg 38%
16:00 +29°C° 0 mm 2 mps 753 mmHg 37%
17:00 +28°C° 0 mm 2 mps 752 mmHg 42%
18:00 +26°C° 0 mm 2 mps 752 mmHg 48%
19:00 +24°C° 0 mm 2 mps 752 mmHg 53%
20:00 +23°C° 0 mm 2 mps 752 mmHg 55%
21:00 +21°C° 0 mm 3 mps 752 mmHg 56%
22:00 +20°C° 0 mm 3 mps 753 mmHg 58%
23:00 +20°C° 0 mm 3 mps 753 mmHg 60%

Day after tomorrow, 14 August, Friday

Time Temperature Precipitation Wind Pressure Humidity
00:00 +19°C° 0 mm 3 mps 752 mmHg 61%
01:00 +18°C° 0 mm 3 mps 752 mmHg 63%
02:00 +18°C° 0 mm 3 mps 752 mmHg 65%
03:00 +18°C° 0 mm 2 mps 752 mmHg 66%
04:00 +17°C° 0 mm 2 mps 752 mmHg 67%
05:00 +18°C° 0 mm 2 mps 752 mmHg 65%
06:00 +19°C° 0 mm 2 mps 752 mmHg 63%
07:00 +20°C° 0 mm 2 mps 752 mmHg 61%
08:00 +22°C° 0 mm 3 mps 752 mmHg 56%
09:00 +25°C° 0 mm 3 mps 752 mmHg 51%
10:00 +26°C° 0 mm 3 mps 753 mmHg 47%
11:00 +27°C° 0 mm 3 mps 752 mmHg 44%
12:00 +28°C° 0 mm 4 mps 752 mmHg 41%
13:00 +29°C° 0 mm 4 mps 752 mmHg 38%
14:00 +29°C° 0 mm 4 mps 752 mmHg 38%
15:00 +29°C° 0 mm 3 mps 751 mmHg 38%
16:00 +29°C° 0 mm 3 mps 751 mmHg 38%
17:00 +27°C° 0 mm 3 mps 751 mmHg 44%
18:00 +25°C° 0 mm 3 mps 752 mmHg 50%
19:00 +24°C° 0 mm 3 mps 752 mmHg 56%
20:00 +23°C° 0 mm 2 mps 752 mmHg 55%
21:00 +23°C° 0 mm 2 mps 752 mmHg 55%
22:00 +21°C° 0 mm 2 mps 752 mmHg 55%
23:00 +21°C° 0 mm 2 mps 753 mmHg 57%

15 August, Saturday

Time Temperature Precipitation Wind Pressure Humidity
00:00 +20°C° 0 mm 2 mps 753 mmHg 59%
01:00 +20°C° 0 mm 2 mps 753 mmHg 61%
02:00 +19°C° 0 mm 2 mps 753 mmHg 64%
03:00 +19°C° 0 mm 2 mps 753 mmHg 66%
04:00 +18°C° 0 mm 2 mps 753 mmHg 69%
05:00 +19°C° 0 mm 2 mps 753 mmHg 68%
06:00 +20°C° 0 mm 2 mps 753 mmHg 67%
07:00 +21°C° 0 mm 2 mps 753 mmHg 66%
08:00 +24°C° 0 mm 2 mps 754 mmHg 59%
09:00 +25°C° 0 mm 3 mps 754 mmHg 53%
10:00 +27°C° 0 mm 3 mps 754 mmHg 46%
11:00 +28°C° 0 mm 3 mps 754 mmHg 45%
12:00 +28°C° 0 mm 4 mps 754 mmHg 43%
13:00 +29°C° 0 mm 4 mps 753 mmHg 41%
14:00 +29°C° 0 mm 4 mps 753 mmHg 41%
15:00 +29°C° 0 mm 4 mps 753 mmHg 41%
16:00 +29°C° 0 mm 4 mps 753 mmHg 41%
17:00 +27°C° 0 mm 3 mps 753 mmHg 47%
18:00 +25°C° 0 mm 3 mps 753 mmHg 52%
19:00 +24°C° 0 mm 2 mps 753 mmHg 57%
20:00 +23°C° 0 mm 2 mps 753 mmHg 58%
21:00 +21°C° 0 mm 2 mps 753 mmHg 59%
22:00 +20°C° 0 mm 2 mps 754 mmHg 61%
23:00 +20°C° 0 mm 2 mps 754 mmHg 63%

16 August, Sunday

Time Temperature Precipitation Wind Pressure Humidity
00:00 +19°C° 0 mm 2 mps 754 mmHg 65%
01:00 +19°C° 0 mm 2 mps 754 mmHg 67%
02:00 +18°C° 0 mm 2 mps 754 mmHg 70%
03:00 +18°C° 0 mm 2 mps 754 mmHg 72%
04:00 +17°C° 0 mm 2 mps 754 mmHg 75%
05:00 +18°C° 0 mm 3 mps 754 mmHg 72%
06:00 +19°C° 0 mm 3 mps 754 mmHg 69%
07:00 +20°C° 0 mm 4 mps 754 mmHg 66%
08:00 +21°C° 0 mm 4 mps 754 mmHg 61%
09:00 +23°C° 0 mm 4 mps 754 mmHg 55%
10:00 +25°C° 0 mm 5 mps 755 mmHg 50%
11:00 +26°C° 0 mm 5 mps 754 mmHg 47%
12:00 +27°C° 0 mm 5 mps 754 mmHg 45%
13:00 +28°C° 0 mm 5 mps 754 mmHg 42%
14:00 +28°C° 0 mm 5 mps 754 mmHg 42%
15:00 +28°C° 0 mm 5 mps 753 mmHg 41%
16:00 +28°C° 0 mm 5 mps 753 mmHg 40%
17:00 +26°C° 0 mm 5 mps 753 mmHg 45%
18:00 +25°C° 0 mm 4 mps 753 mmHg 49%
19:00 +22°C° 0 mm 4 mps 753 mmHg 53%
20:00 +21°C° 0 mm 4 mps 753 mmHg 53%
21:00 +21°C° 0 mm 4 mps 753 mmHg 53%
22:00 +20°C° 0 mm 4 mps 753 mmHg 54%
23:00 +19°C° 0 mm 4 mps 753 mmHg 56%

17 August, Monday

Time Temperature Precipitation Wind Pressure Humidity
00:00 +18°C° 0 mm 3 mps 753 mmHg 58%
01:00 +18°C° 0 mm 3 mps 753 mmHg 60%
02:00 +17°C° 0 mm 3 mps 753 mmHg 64%
03:00 +17°C° 0 mm 3 mps 753 mmHg 67%
04:00 +16°C° 0 mm 3 mps 753 mmHg 70%
05:00 +17°C° 0 mm 4 mps 753 mmHg 67%
06:00 +18°C° 0 mm 4 mps 752 mmHg 64%
07:00 +19°C° 0 mm 5 mps 752 mmHg 61%
08:00 +20°C° 0 mm 5 mps 752 mmHg 58%
09:00 +22°C° 0 mm 6 mps 752 mmHg 55%
10:00 +23°C° 0 mm 6 mps 752 mmHg 52%
11:00 +24°C° 0 mm 6 mps 752 mmHg 50%
12:00 +26°C° 0 mm 6 mps 751 mmHg 49%
13:00 +27°C° 0 mm 5 mps 751 mmHg 47%
14:00 +27°C° 0 mm 5 mps 750 mmHg 47%
15:00 +28°C° 0 mm 5 mps 750 mmHg 48%
16:00 +28°C° 0 mm 4 mps 749 mmHg 48%
17:00 +27°C° 0 mm 4 mps 749 mmHg 53%
18:00 +25°C° 0 mm 3 mps 749 mmHg 59%
19:00 +24°C° 0 mm 2 mps 749 mmHg 64%
20:00 +23°C° 0 mm 2 mps 749 mmHg 66%
21:00 +23°C° 0 mm 2 mps 749 mmHg 68%
22:00 +21°C° 0 mm 3 mps 749 mmHg 70%
23:00 +21°C° 0.2 mm 2 mps 749 mmHg 73%
Show more